This is the latest recevied weather packets stored in our database for station/object N2UFM. If no packets are shown the sender has not sent any weather packets the latest 10 day(s).
| Time | Temp. | Humidity | Pressure | Rain* | Wind** | Luminosity | Snow |
|---|---|---|---|---|---|---|---|
| 1778268407 | 17.78° C | 40% | 1012.4 hPa | 0 mm | - | - | - |
| 1778268107 | 17.78° C | 41% | 1012.5 hPa | 0 mm | - | - | - |
| 1778267806 | 17.78° C | 40% | 1012.6 hPa | 0 mm | - | - | - |
| 1778267506 | 18.33° C | 40% | 1012.8 hPa | 0 mm | - | - | - |
| 1778267206 | 18.33° C | 39% | 1012.6 hPa | 0 mm | - | - | - |
| 1778266906 | 18.89° C | 39% | 1012.7 hPa | 0 mm | - | - | - |
| 1778266606 | 18.89° C | 38% | 1012.6 hPa | 0 mm | - | - | - |
| 1778266306 | 18.89° C | 38% | 1012.7 hPa | 0 mm | - | - | - |
| 1778266006 | 19.44° C | 38% | 1012.8 hPa | 0 mm | - | - | - |
| 1778265705 | 19.44° C | 36% | 1012.7 hPa | 0 mm | - | - | - |
| 1778265405 | 19.44° C | 37% | 1012.8 hPa | 0 mm | - | - | - |
| 1778265105 | 18.89° C | 37% | 1012.6 hPa | 0 mm | - | - | - |
| 1778264805 | 18.89° C | 38% | 1012.7 hPa | 0 mm | - | - | - |
| 1778264505 | 18.89° C | 39% | 1012.8 hPa | 0 mm | - | - | - |
| 1778264205 | 18.33° C | 39% | 1012.8 hPa | 0 mm | - | - | - |
| 1778263904 | 17.78° C | 40% | 1012.8 hPa | 0 mm | - | - | - |
| 1778263604 | 17.78° C | 40% | 1013.1 hPa | 0 mm | - | - | - |
| 1778263304 | 18.33° C | 39% | 1013.2 hPa | 0 mm | - | - | - |
| 1778263004 | 18.33° C | 40% | 1013.1 hPa | 0 mm | - | - | - |
| 1778262704 | 18.33° C | 40% | 1013.1 hPa | 0 mm | - | - | - |
| 1778262404 | 18.33° C | 39% | 1013.2 hPa | 0 mm | - | - | - |
| 1778262103 | 18.89° C | 38% | 1013.1 hPa | 0 mm | - | - | - |
| 1778261803 | 18.89° C | 39% | 1013.3 hPa | 0 mm | - | - | - |
| 1778261503 | 18.33° C | 39% | 1013.2 hPa | 0 mm | - | - | - |
| 1778261203 | 18.33° C | 39% | 1013.2 hPa | 0 mm | - | - | - |
* Rain latest hour (hover to see other rain measurements)
** Current wind speed in m/s (hover to see current wind gust speed)